CW5066 Weather Reports


time (UTC)temp
C
wind
direction
speed
KPH
gust
KPH
rain 1hr
cm
rain 24hr
cm
rain mn
cm
humidity
%
barometer
mb
20260506030536 -5 0.0 3.2 0.00 0.25 0.25 92 1010.0
20260506025537 -5 0.0 1.6 0.00 0.25 0.25 92 1008.6
20260506024516 -5 0.0 0.0 0.00 0.25 0.25 92 1008.4
20260506023517 -5 0.0 3.2 0.00 0.25 0.25 91 1008.4
20260506022516 -5 0.0 0.0 0.00 0.28 0.25 91 1008.8
20260506021516 -5 0.0 0.0 0.00 0.33 0.25 91 1008.7
20260506020516 -5 0.0 1.6 0.00 0.33 0.25 90 1008.3
20260506015516 -5 0.0 3.2 0.00 0.33 0.25 90 1008.1
20260506014536 -5 0.0 3.2 0.00 0.33 0.25 90 1007.9
20260506013516 -4 0.0 3.2 0.00 0.33 0.25 90 1008.5
20260506012516 -4 0.0 3.2 0.00 0.33 0.25 90 1008.5
20260506011516 -4 0.0 3.2 0.00 0.33 0.25 90 1008.4
20260506010516 -4 0.0 3.2 0.00 0.33 0.25 90 1008.3
20260506005516 -3 158 1.6 3.2 0.00 0.33 0.25 90 1008.2
20260506004536 -3 158 1.6 4.8 0.00 0.33 0.25 90 1007.9
20260506003536 -3 180 3.2 9.7 0.00 0.33 0.25 89 1007.9
20260506002536 -3 0.0 4.8 0.00 0.33 0.25 91 1008.7
20260506001516 -3 0.0 3.2 0.00 0.33 0.25 91 1008.4
20260506000516 -3 0.0 3.2 0.00 0.33 0.25 91 1008.4
20260505235516 -3 203 1.6 6.4 0.00 0.33 0.25 91 1008.1
20260505234516 -3 203 1.6 3.2 0.00 0.33 0.25 91 1008.2
20260505233516 -3 203 1.6 8.0 0.00 0.33 0.25 91 1008.0
20260505232536 -3 203 1.6 4.8 0.00 0.36 0.25 92 1008.5
20260505231536 -3 0.0 3.2 0.00 0.36 0.25 92 1008.2
20260505230516 -3 203 1.6 6.4 0.00 0.36 0.25 92 1008.0
20260505225516 -3 158 1.6 8.0 0.00 0.36 0.25 92 1008.6
20260505224516 -3 180 1.6 9.7 0.00 0.36 0.25 92 1008.7
20260505223516 -3 0.0 4.8 0.03 0.36 0.25 92 1008.6
20260505222516 -2 0.0 0.0 0.03 0.36 0.25 91 1008.7
20260505221536 -2 203 1.6 4.8 0.03 0.36 0.25 91 1009.1
20260505220536 -2 158 1.6 6.4 0.05 0.36 0.25 91 1008.4
20260505215536 -2 158 3.2 8.0 0.05 0.36 0.25 90 1009.0
20260505214516 -2 203 1.6 8.0 0.05 0.36 0.25 90 1008.6
20260505213616 -1 180 3.2 8.0 0.03 0.33 0.23 91 1009.0
20260505212516 -2 158 4.8 9.7 0.05 0.33 0.23 91 1008.7
20260505211515 -1 248 1.6 9.7 0.05 0.33 0.23 92 1008.7
20260505210516 -2 0.0 1.6 0.03 0.30 0.20 91 1008.4
20260505205515 -2 293 3.2 12.9 0.05 0.30 0.20 89 1008.4
20260505204515 -1 0.0 0.0 0.05 0.30 0.20 90 1008.7
20260505203515 -1 203 1.6 6.4 0.05 0.30 0.20 90 1008.9
20260505202516 -1 203 3.2 6.4 0.03 0.28 0.18 91 1008.8
20260505201515 -1 203 4.8 11.3 0.03 0.28 0.18 91 1008.8
20260505200515 -1 203 3.2 6.4 0.05 0.28 0.18 91 1008.9
20260505195516 -1 225 1.6 3.2 0.03 0.25 0.15 92 1009.5
20260505194516 -2 203 3.2 8.0 0.03 0.25 0.15 93 1008.3
20260505193516 -2 0.0 4.8 0.03 0.25 0.15 92 1008.5
20260505192516 -2 248 4.8 11.3 0.05 0.25 0.15 92 1008.3
20260505191515 -2 248 4.8 12.9 0.05 0.25 0.15 91 1008.2
20260505190515 -2 248 3.2 11.3 0.05 0.23 0.13 90 1008.1
20260505185515 -2 248 3.2 9.7 0.05 0.23 0.13 89 1008.1
20260505184515 -1 225 1.6 6.4 0.05 0.23 0.13 90 1008.8
20260505183516 -1 0.0 4.8 0.05 0.23 0.13 91 1008.9
20260505182517 -1 0.0 3.2 0.03 0.20 0.10 92 1008.4
20260505181517 -2 0.0 3.2 0.05 0.20 0.10 92 1008.5
20260505180517 -2 248 1.6 4.8 0.05 0.18 0.08 90 1008.3
20260505175537 -2 203 3.2 8.0 0.05 0.18 0.08 91 1008.2
20260505174517 -2 203 1.6 6.4 0.05 0.18 0.08 91 1008.3
20260505173517 -1 0.0 3.2 0.05 0.18 0.08 92 1008.5
20260505172517 -2 203 1.6 4.8 0.05 0.18 0.08 92 1008.6
20260505171537 -2 0.0 3.2 0.03 0.15 0.05 93 1008.7
20260505170517 -2 203 1.6 8.0 0.00 0.13 0.03 93 1008.6
20260505165517 -2 203 1.6 6.4 0.00 0.13 0.03 93 1008.4
20260505164517 -2 0.0 3.2 0.00 0.13 0.03 93 1008.4
20260505163517 -2 203 3.2 8.0 0.00 0.13 0.03 93 1008.4
20260505162538 -2 0.0 3.2 0.00 0.13 0.03 94 1008.4
20260505161517 -2 180 1.6 4.8 0.00 0.13 0.03 94 1008.3
20260505160557 -2 0.0 3.2 0.00 0.13 0.03 94 1008.1
20260505152516 -2 203 1.6 4.8 0.00 0.13 0.03 95 1008.1
20260505151537 -2 203 3.2 8.0 0.00 0.13 0.03 94 1007.9
20260505150517 -2 225 1.6 6.4 0.00 0.13 0.03 95 1007.7
20260505140517 -2 203 1.6 4.8 0.00 0.13 0.03 95 1009.1
20260505124516 -2 0.0 3.2 0.00 0.13 0.03 95 1008.7
20260505123517 -2 203 1.6 6.4 0.00 0.13 0.03 95 1008.5
20260505122516 -2 203 1.6 8.0 0.00 0.13 0.03 95 1009.2
20260505121516 -2 203 1.6 6.4 0.00 0.13 0.03 95 1009.2
20260505120516 -2 158 6.4 11.3 0.00 0.13 0.03 95 1009.2
20260505115516 -2 158 6.4 12.9 0.00 0.13 0.03 95 1009.5
20260505114516 -1 135 6.4 12.9 0.00 0.13 0.03 95 1009.4
20260505113516 -1 135 6.4 12.9 0.00 0.13 0.03 95 1009.2
20260505112516 -1 158 4.8 16.1 0.03 0.13 0.03 95 1009.8
20260505111516 -1 135 8.0 14.5 0.03 0.13 0.03 95 1010.4
20260505110516 -1 158 4.8 11.3 0.03 0.13 0.03 95 1010.5
20260505101516 0 0.0 0.0 0.00 0.10 0.00 95 1012.1
20260505100516 0 0.0 0.0 0.00 0.10 0.00 95 1012.0
20260505095516 0 0.0 0.0 0.00 0.10 0.00 95 1012.8
20260505094516 0 0.0 0.0 0.00 0.10 0.00 95 1012.8
20260505093536 0 0.0 0.0 0.00 0.10 0.00 95 1012.9
20260505092536 0 0.0 1.6 0.00 0.10 0.00 95 1013.4
20260505091515 0 0.0 0.0 0.00 0.10 0.00 95 1013.4
20260505090516 0 0.0 3.2 0.00 0.10 0.00 95 1012.7
20260505085516 0 0.0 0.0 0.00 0.10 0.00 95 1012.5
20260505084536 0 0.0 0.0 0.00 0.10 0.00 95 1012.6
20260505083556 0 0.0 3.2 0.00 0.10 0.00 95 1012.7
20260505082556 0 0.0 3.2 0.00 0.10 0.00 95 1012.2
20260505081536 0 0.0 3.2 0.00 0.10 0.00 95 1012.3
20260505080515 0 0.0 3.2 0.00 0.10 0.00 95 1012.3
20260505075516 0 0.0 0.0 0.00 0.10 0.00 95 1010.4
20260505074515 0 225 1.6 3.2 0.00 0.10 0.00 95 1010.4
20260505073515 0 0.0 1.6 0.00 0.10 0.00 95 1011.0
20260505072515 0 0.0 0.0 0.00 0.10 0.00 95 1011.8
20260505071516 0 0.0 3.2 0.00 0.10 0.00 95 1011.6
20260505070515 0 0.0 0.0 0.00 0.10 0.00 95 1011.7
20260505065515 0 0.0 3.2 0.00 0.10 0.00 95 1012.8
20260505064515 0 0.0 0.0 0.00 0.10 0.00 95 1012.8
20260505063515 0 0.0 0.0 0.00 0.10 0.00 95 1012.8
20260505062517 0 0.0 0.0 0.00 0.10 0.00 95 1012.3
20260505061517 0 0.0 0.0 0.00 0.10 0.00 95 1012.2
20260505060517 0 0.0 0.0 0.00 0.10 0.00 94 1012.3
20260505055516 0 0.0 0.0 0.00 0.10 0.10 94 1012.3
20260505054516 0 315 1.6 3.2 0.00 0.10 0.10 94 1012.3
20260505053516 0 315 1.6 3.2 0.00 0.10 0.10 94 1012.4
20260505052556 0 293 1.6 4.8 0.00 0.10 0.10 94 1012.3
20260505051516 0 293 1.6 4.8 0.00 0.10 0.10 94 1011.7
20260505050516 0 293 1.6 3.2 0.00 0.10 0.10 94 1011.8
20260505041516 0 0.0 0.0 0.00 0.10 0.10 93 1011.1
20260505040535 0 0.0 0.0 0.00 0.10 0.10 93 1011.5
20260505035515 0 0.0 0.0 0.00 0.10 0.10 92 1011.0
20260505034516 0 0.0 0.0 0.00 0.10 0.10 92 1010.9
20260505033515 0 0.0 0.0 0.00 0.10 0.10 92 1010.6
20260505032516 0 0.0 0.0 0.03 0.10 0.10 91 1010.1
20260505031516 0 0.0 0.0 0.08 0.10 0.10 91 1010.0